Regional Weather Roundup
Issued by NWS Cleveland, OH

Home | Current Version | Previous Version | Graphics & Text | Print | Product List | Glossary On
Versions: 1 2 3 4 5 6 7 8 9 10 11 12 13 14 15 16 17 18 19 20 21 22 23 24 25 26 27 28 29 30 31 32 33 34 35 36 37 38 39 40 41 42 43 44 45 46 47 48 49 50
000
ASUS41 KCLE 010010
RWRCLE
OHIO REGIONAL WEATHER ROUNDUP
NATIONAL WEATHER SERVICE CLEVELAND, OH
800 PM EDT THU JUL 31 2014

NOTE: "FAIR" INDICATES FEW OR NO CLOUDS BELOW 12,000 FEET WITH NO
SIGNIFICANT WEATHER AND/OR OBSTRUCTIONS TO VISIBILITY.

OHZ001>008-015>018-024>027-034-035-043-044-010100-
   NORTHWEST OHIO

CITY           SKY/WX    TMP DP  RH WIND       PRES   REMARKS
DEFIANCE       CLOUDY    72  62  71 CALM      30.05S
FINDLAY        CLEAR     77  58  51 SW7       30.05R
TOLEDO EXPRESS PTCLDY    74  62  66 W3        30.04R
TOLEDO EXEC    LGT RAIN  75  61  61 W9        30.04R
LIMA           CLEAR     77  60  55 SW5       30.07R
$$

OHZ009>014-019>023-028>033-038-089-010100-
   NORTHEAST OHIO

CITY           SKY/WX    TMP DP  RH WIND       PRES   REMARKS
CLE-HOPKINS    PTCLDY    74  56  53 S6        30.08R
CLE-LAKEFRONT  CLEAR     77  54  44 S9        30.04S
CUY CO. ARPT   PTCLDY    75  57  53 SW8       30.07S
LORAIN-ELYRIA  PTCLDY    77  60  55 SW5       30.06S
ASHTABULA      CLEAR     70  57  63 S3        30.09S
AKRON-CANTON   CLEAR     74  56  53 SW3       30.09S
WOOSTER        CLEAR     72  59  63 SW5       30.09S
MANSFIELD      CLEAR     73  58  59 SW5       30.09S
YOUNGSTOWN     PTCLDY    72  57  59 CALM      30.09S
$$

OHZ042-051>053-060>062-070>072-077>081-010100-
  SOUTHWEST OHIO

CITY           SKY/WX    TMP DP  RH WIND       PRES   REMARKS
CINC-COVINGTON MOCLDY    75  60  59 S3        30.08S
CINC-LUNKEN    MOCLDY    78  59  51 SW8       30.06S
HAMILTON       CLEAR     76  64  66 NW5       30.07S
DAYTON         CLEAR     77  60  55 W7        30.09S
WRIGHT-PAT AFB CLEAR     76  61  59 SW5       30.07S
DAYTON GENERAL CLEAR     78  59  51 NW5       30.08R
WILMINGTON     PTCLDY    77  57  50 CALM      30.08S
$$

OHZ036-037-039>041-045>050-054>059-063>069-073>076-082>088-010100-
  CENTRAL AND SOUTHEAST OHIO

CITY           SKY/WX    TMP DP  RH WIND       PRES   REMARKS
COLUMBUS       PTCLDY    80  57  45 SW7       30.07S
OSU AIRPORT    PTCLDY    78  57  48 SW6       30.07S
BOLTON FIELD   PTCLDY    74  66  75 CALM      30.08S
RICKENBACK AFB CLEAR     80  56  44 CALM      30.07S
NEWARK         CLEAR     75  62  64 SW3       30.08S
MARION         CLEAR     76  57  51 W6        30.07S
LANCASTER      CLEAR     76  64  66 CALM      30.08S
ZANESVILLE     CLEAR     75  61  61 S3        30.09S
NEW PHILLY     CLEAR     73  64  73 CALM      30.09S
$$



USA.gov is the U.S. government's official web portal to all federal, state and local government web resources and services.